Cloud_Cover
94 100 100 100 100 100 7 5 0 0 0 0 0 0 0 0 0 0 0 0 0 0 1 1 0 5 55 4 100 100 100 42 87 95 99 96 100 54 99 34 95 100 91 100 32 5 5 65 100
70 83 100 100 99 30 1 0 0 0 0 0 0 0 0 0 0 5 6 2 0 0 10 4 0 0 9 29 95 28 100 100 100 100 95 100 100 100 72 76 100 100 95 6 6 35 94 100 100
5 0 4 79 24 5 5 3 0 0 0 0 0 0 0 0 0 0 0 3 5 16 3 0 0 7 0 6 20 71 100 98 9 11 17 77 54 76 100 99 79 83 3 7 34 83 100 100 100
1 19 17 4 0 5 11 7 0 0 0 0 0 0 0 0 0 0 1 69 100 91 10 5 1 8 4 29 0 4 5 9 65 47 74 97 94 98 71 25 23 5 5 100 100 100 70 100 100
3 2 3 4 1 4 29 1 0 0 0 0 0 0 0 0 0 3 5 66 56 88 58 5 2 2 4 1 7 1 2 5 4 6 3 7 14 6 13 2 1 3 5 87 100 94 100 100 100
6 21 5 15 3 3 50 36 60 0 0 0 0 0 0 0 0 1 3 4 5 10 37 26 4 0 1 3 0 0 0 1 0 0 3 4 11 6 5 12 4 3 22 32 96 42 63 99 44
77 81 62 2 5 4 0 1 93 54 0 0 0 0 0 0 0 0 0 0 1 8 28 24 19 10 5 5 14 56 0 0 0 12 0 6 6 8 6 5 10 5 63 83 32 6 98 18 5
5 12 43 80 9 5 5 1 65 2 0 0 0 0 0 0 0 0 0 0 0 1 5 5 28 10 88 26 28 17 84 2 0 1 0 0 1 2 5 5 5 58 100 100 70 20 5 5 46
5 5 61 82 100 14 85 8 0 0 0 0 0 0 0 0 0 0 0 0 0 0 8 26 21 67 77 83 94 100 100 71 0 0 0 0 0 0 0 4 5 5 35 100 100 99 62 83 100
5 2 0 6 78 5 47 14 5 0 2 8 0 0 0 0 0 0 0 0 0 0 36 42 25 14 65 26 66 100 100 100 15 29 90 41 7 5 0 3 32 34 49 100 100 100 14 100 100
4 0 0 4 15 51 12 25 0 63 13 42 4 0 0 0 0 0 0 0 0 0 4 13 20 22 74 76 91 58 100 100 98 74 77 67 5 6 0 5 33 71 63 100 100 100 92 22 98
0 0 0 4 5 38 9 5 5 100 20 78 68 50 0 0 0 0 0 0 0 0 0 5 5 21 22 70 99 95 100 96 79 100 81 71 32 21 5 24 73 40 100 28 90 100 97 79 86
0 4 0 0 5 4 18 2 3 85 93 100 81 10 5 0 0 0 0 0 0 0 0 1 3 5 18 100 100 100 100 97 75 97 91 42 89 34 5 7 12 76 89 80 91 26 40 36 54
0 0 0 0 2 5 5 5 1 23 62 95 100 99 32 60 0 0 0 0 0 0 0 0 0 5 5 88 92 99 100 100 45 100 98 85 74 12 10 12 12 14 100 98 63 41 21 65 99
0 0 0 0 0 5 1 3 90 99 48 12 100 100 99 11 5 0 2 0 0 0 0 0 0 5 19 16 100 83 100 73 99 79 100 69 52 12 5 32 100 29 49 100 92 12 38 25 89
0 0 0 0 0 1 1 4 59 45 23 100 31 100 100 99 57 0 0 0 0 0 0 0 0 0 4 5 16 100 100 82 99 89 99 90 59 5 5 11 5 5 24 45 99 17 22 45 90
0 0 0 0 0 9 47 0 5 42 94 97 5 39 99 87 35 0 1 5 0 0 0 0 0 0 0 0 20 91 100 100 99 100 100 44 98 78 17 5 5 64 19 29 100 16 5 14 6
1 0 0 0 2 9 48 1 1 4 17 100 3 0 0 0 68 5 5 35 5 0 0 0 0 0 0 0 10 19 100 99 100 89 99 82 82 96 100 53 5 6 28 22 20 78 77 5 6
0 0 0 0 50 3 4 5 5 5 4 12 98 0 0 0 37 0 5 90 57 10 0 0 0 0 0 2 9 14 5 5 100 79 100 90 98 67 99 100 57 15 15 74 9 97 68 24 4
0 0 0 0 3 0 4 4 57 2 2 5 1 0 0 0 0 5 3 28 44 100 97 0 0 0 0 0 1 0 6 8 8 99 96 100 88 100 94 100 99 47 29 24 30 7 36 58 22
0 0 0 0 49 2 0 1 2 5 5 0 0 0 0 0 0 2 3 5 98 88 2 0 0 0 0 0 22 21 1 5 8 48 100 96 100 91 66 100 99 20 99 25 96 12 37 64 58
0 0 0 0 33 2 1 0 0 0 0 0 0 0 0 0 2 5 0 4 100 95 4 5 0 0 5 14 3 0 5 41 5 99 43 90 88 100 14 15 70 39 72 74 56 98 54 100 83
0 0 0 0 0 42 0 0 6 0 0 0 0 0 0 0 5 5 14 21 100 47 7 5 4 3 14 8 0 0 0 6 5 27 96 8 66 100 100 100 38 98 100 100 100 88 100 44 11
0 0 0 0 0 0 0 0 95 0 0 0 0 0 0 0 0 28 12 99 100 55 95 5 0 6 28 1 31 100 100 88 28 52 32 6 21 98 100 100 71 100 100 100 100 100 100 100 100
100 90 2 0 0 0 4 1 91 2 0 0 0 2 5 5 0 5 5 67 99 68 4 0 0 62 28 71 91 87 71 76 100 84 6 14 46 100 100 100 90 100 98 100 100 100 100 93 99
5 12 63 5 0 0 0 3 85 14 0 0 2 4 5 5 3 2 0 7 11 4 0 0 14 99 60 41 29 24 37 100 100 100 100 92 100 54 100 100 95 100 100 100 100 85 54 97 99
96 100 100 100 5 35 0 4 38 5 2 0 5 5 7 5 5 5 0 5 1 0 9 2 14 27 36 22 5 36 2 5 48 100 100 100 100 90 100 100 100 100 100 100 100 100 100 100 100
100 100 100 100 59 38 3 0 22 5 5 5 5 5 5 6 5 11 4 3 28 82 19 0 5 1 5 0 1 0 0 0 10 100 100 100 100 97 33 100 100 100 96 62 99 91 100 100 100
100 100 60 100 20 5 0 0 5 2 5 5 5 5 12 28 88 58 85 100 80 31 13 100 71 0 5 5 6 0 0 0 0 63 98 58 99 99 24 100 100 100 100 100 100 100 100 97 94
100 96 100 13 100 5 5 0 0 0 5 5 5 6 64 98 65 92 69 82 43 21 97 95 55 35 98 5 0 0 0 1 12 0 66 82 36 100 98 58 62 75 78 99 100 100 80 20 33